WEATHER DATA

TODAY
Time Temp. Dewp. Hum. Bar. 1h Prec. 24h Prec.
00:04 14 11.2 83 1015.6 0.0000 0.0000
00:14 13.8 11 83 1015.6 0.0000 0.0000
00:24 13.7 11 84 1015.5 0.0000 0.0000
00:34 13.5 10.7 83 1015.6 0.0000 0.0000
00:45 13.3 10.5 83 1015.7 0.0000 0.0000
00:54 13.2 10.4 83 1015.7 0.0000 0.0000
01:04 13.1 10.5 84 1015.7 0.0000 0.0000
01:14 13 10.7 86 1015.8 0.0000 0.0000
01:25 12.9 10.6 86 1015.7 0.0000 0.0000
01:35 12.8 10.5 86 1015.7 0.0000 0.0000
01:45 12.8 10.9 88 1015.8 0.0000 0.0000
01:55 12.7 10.9 89 1015.9 0.0000 0.0000
02:05 12.7 10.9 89 1015.8 0.0000 0.0000
02:15 12.7 10.9 89 1015.9 0.0000 0.0000
02:25 12.6 11 90 1016.1 0.0000 0.0000
02:36 12.6 11 90 1016 0.0000 0.0000
02:46 12.7 11.3 91 1016.1 0.0000 0.0000
02:56 12.8 11.4 91 1016.2 0.0000 0.0000
03:06 12.8 11.4 91 1016.2 0.0000 0.0000
03:16 12.9 11.5 91 1016.3 0.0000 0.0000
03:26 12.8 11.4 91 1016.3 0.0000 0.0000
03:36 12.8 11.4 91 1016.5 0.0000 0.0000
03:47 12.7 11.3 91 1016.5 0.0000 0.0000
03:57 12.7 11.3 91 1016.5 0.0000 0.0000
04:06 12.7 11.4 92 1016.6 0.0000 0.0000
04:16 12.7 11.3 91 1016.6 0.0000 0.0000
04:27 12.7 11.4 92 1016.6 0.0000 0.0000
04:37 12.7 11.3 91 1016.7 0.0000 0.0000
04:47 12.8 11.4 91 1016.7 0.0000 0.0000
04:57 12.9 11.5 91 1016.7 0.0000 0.0000
05:07 12.9 11.5 91 1016.7 0.0000 0.0000
05:17 13 11.6 91 1016.5 0.0000 0.0000
05:27 13.1 11.7 91 1016.8 0.0000 0.0000
05:38 13.2 11.8 91 1016.9 0.0000 0.0000
05:48 13.2 11.8 91 1016.9 0.0000 0.0000
05:58 13.3 11.9 91 1016.9 0.0000 0.0000
06:08 13.3 11.7 90 1017 0.0000 0.0000
06:18 13.3 11.9 91 1016.9 0.0000 0.0000
06:28 13.4 11.8 90 1017 0.0000 0.0000
06:38 13.5 11.9 90 1017 0.0000 0.0000
06:49 13.5 11.9 90 1017.1 0.0000 0.0000
06:59 13.6 12 90 1017.2 0.0000 0.0000
07:08 13.6 12 90 1017.2 0.0000 0.0000
07:18 13.6 12 90 1017.2 0.0000 0.0000
07:29 13.6 12 90 1017.3 0.0000 0.0000
07:39 13.6 12 90 1017.3 0.0000 0.0000
07:48 13.6 12 90 1017.4 0.0000 0.0000
07:59 13.6 12 90 1017.4 0.0000 0.0000
08:19 13.7 12.1 90 1017.6 0.0000 0.0000
08:29 13.7 12.1 90 1017.6 0.0000 0.0000
08:40 13.7 12.1 90 1017.7 0.0000 0.0000
08:50 13.7 12.1 90 1017.7 0.0000 0.0000
09:00 13.8 12 89 1017.9 0.0000 0.0000
09:10 13.8 12 89 1017.7 0.0000 0.0000
09:30 13.9 12.3 90 1017.8 0.0000 0.0000
09:40 14 12.4 90 1017.9 0.0000 0.0000
09:51 14.1 12.5 90 1018 0.0000 0.0000
10:01 14.1 12.5 90 1018.1 0.0000 0.0000
10:10 14.1 12.5 90 1018.1 0.0000 0.0000
10:20 14 12.4 90 1018.2 0.0000 0.0000
10:31 14 12.2 89 1018.3 0.0000 0.0000
10:41 14 12.2 89 1018.5 0.0000 0.0000
10:51 14 12.2 89 1018.6 0.0000 0.0000
11:01 14 12.2 89 1018.6 0.0000 0.0000
11:12 14.2 12.4 89 1018.7 0.0000 0.0000
11:21 14.3 12.3 88 1018.7 0.0000 0.0000
11:31 14.4 12.4 88 1018.7 0.0000 0.0000
11:42 14.7 12.6 87 1018.7 0.0000 0.0000
11:52 14.8 12.5 86 1018.7 0.0000 0.0000
12:02 15 12.3 84 1018.7 0.0000 0.0000
12:12 15.2 12.3 83 1018.7 0.0000 0.0000
12:22 15.3 12.1 81 1018.9 0.0000 0.0000
12:32 15.6 12.2 80 1018.9 0.0000 0.0000
12:42 15.7 12.1 79 1018.8 0.0000 0.0000
12:53 15.7 12.1 79 1018.8 0.0000 0.0000
13:03 15.9 12.1 78 1018.7 0.0000 0.0000
13:13 15.8 11.8 77 1018.5 0.0000 0.0000
13:22 15.8 12 78 1018.5 0.0000 0.0000
13:33 16 12 77 1018.6 0.0000 0.0000
13:43 16.1 11.9 76 1018.6 0.0000 0.0000
13:53 16.3 11.9 75 1018.2 0.0000 0.0000
14:03 16.5 12.1 75 1018.3 0.0000 0.0000
14:14 16.7 12 74 1018.5 0.0000 0.0000
14:23 16.7 12 74 1018.2 0.0000 0.0000
14:33 16.8 11.9 73 1018.2 0.0000 0.0000
14:44 16.8 11.9 73 1018.1 0.0000 0.0000
14:54 16.9 11.8 72 1018.3 0.0000 0.0000
15:04 16.7 12 74 1018.3 0.0000 0.0000
15:14 16.4 12 75 1018.5 0.0000 0.0000
15:24 16.2 12.2 77 1018.5 0.0000 0.0000
15:34 16.1 12.1 77 1018.6 0.0000 0.0000
15:44 16.1 12.1 77 1018.6 0.0000 0.0000
15:54 16.1 12.1 77 1018.3 0.0000 0.0000
16:05 16.2 12.2 77 1018.2 0.0000 0.0000
16:15 16.3 12.3 77 1018.3 0.0000 0.0000
16:25 16.3 12.1 76 1018.3 0.0000 0.0000
16:35 16.2 12 76 1018.3 0.0000 0.0000
16:45 16.2 12 76 1018.2 0.0000 0.0000
16:55 16.1 11.9 76 1018.1 0.0000 0.0000
17:05 16 12 77 1018 0.0000 0.0000
17:16 15.9 12.5 80 1018.3 0.0000 0.0000
17:26 15.6 12.4 81 1018.3 0.0000 0.0000
17:35 15.4 12.3 82 1018.5 0.0000 0.0000

DAY STATISTIC

2018-10-18
TEMPERATURE
AVERAGE
14.3
HIGH
16.9
14:54
LOW
12.6
02:25
PRESSURE
AVERAGE
1017.5
HIGH
1018.9
12:22
LOW
1015.5
00:24
DEWPOINT
AVERAGE
11.8
HIGH
12.6
11:42
LOW
10.4
00:54
HUMIDITY
AVERAGE
85
HIGH
92
04:06
LOW
72
14:54
PRECIPITATION
RAIN HOUR
0.0
RAIN DAY
0.0
TEMPERATURE (°C)
LOW
12.6
HIGH
16.9
AVERAGE
14.3
PRESSURE (hpa)
LOW
1015.5
HIGH
1018.9
AVERAGE
1017.5
DEVICE